QPF
0.00 0.00 0.00 0.00 0.00 0.00 0.00 0.00 0.00 0.00 0.00 0.00 0.00 0.00 0.00 0.00 0.00 0.00 0.00 0.00 0.00 0.00 0.00 0.00 0.00 0.00 0.00 0.00 0.00 0.00 0.00 0.00 0.00 0.00 0.00 0.00 0.00 0.00 0.00 0.00 0.00 0.00 0.00 0.00
0.00 0.00 0.00 0.00 0.00 0.00 0.00 0.00 0.00 0.00 0.00 0.00 0.00 0.00 0.00 0.00 0.00 0.00 0.00 0.00 0.00 0.00 0.00 0.00 0.00 0.00 0.00 0.00 0.00 0.00 0.00 0.00 0.00 0.00 0.00 0.00 0.00 0.00 0.00 0.00 0.00 0.00 0.00 0.01
0.00 0.00 0.00 0.00 0.00 0.00 0.00 0.00 0.00 0.00 0.00 0.00 0.00 0.00 0.00 0.00 0.00 0.00 0.00 0.00 0.00 0.00 0.00 0.00 0.00 0.00 0.00 0.00 0.00 0.00 0.00 0.00 0.00 0.00 0.00 0.00 0.00 0.00 0.00 0.00 0.01 0.02 0.04 0.03
0.00 0.00 0.00 0.00 0.00 0.00 0.00 0.00 0.00 0.00 0.00 0.00 0.00 0.00 0.00 0.00 0.00 0.00 0.00 0.00 0.00 0.00 0.00 0.00 0.00 0.00 0.00 0.00 0.00 0.00 0.00 0.00 0.00 0.00 0.00 0.00 0.00 0.00 0.01 0.01 0.04 0.09 0.15 0.17
0.00 0.00 0.00 0.00 0.00 0.00 0.00 0.00 0.00 0.00 0.00 0.00 0.00 0.00 0.00 0.00 0.00 0.00 0.00 0.00 0.00 0.00 0.00 0.00 0.00 0.00 0.00 0.00 0.00 0.00 0.00 0.00 0.00 0.00 0.00 0.00 0.00 0.00 0.01 0.04 0.14 0.25 0.19 0.11
0.00 0.00 0.00 0.00 0.00 0.00 0.00 0.01 0.00 0.01 0.02 0.01 0.00 0.00 0.00 0.00 0.00 0.00 0.00 0.00 0.00 0.00 0.00 0.00 0.00 0.00 0.00 0.00 0.00 0.00 0.00 0.00 0.00 0.00 0.00 0.00 0.00 0.02 0.05 0.13 0.17 0.10 0.04 0.02
0.00 0.00 0.00 0.00 0.00 0.00 0.00 0.01 0.02 0.02 0.02 0.00 0.00 0.00 0.00 0.00 0.00 0.00 0.00 0.00 0.00 0.00 0.00 0.00 0.00 0.00 0.00 0.00 0.00 0.00 0.00 0.00 0.01 0.00 0.00 0.00 0.02 0.04 0.05 0.04 0.02 0.00 0.00 0.00
0.01 0.00 0.00 0.00 0.00 0.02 0.01 0.01 0.02 0.01 0.00 0.00 0.00 0.00 0.00 0.00 0.00 0.00 0.00 0.00 0.00 0.00 0.00 0.00 0.00 0.00 0.00 0.00 0.00 0.00 0.00 0.01 0.01 0.01 0.01 0.01 0.01 0.01 0.00 0.00 0.00 0.00 0.00 0.00
0.02 0.01 0.00 0.00 0.02 0.02 0.01 0.00 0.01 0.00 0.00 0.00 0.00 0.00 0.00 0.00 0.00 0.00 0.00 0.00 0.00 0.00 0.00 0.00 0.00 0.00 0.00 0.00 0.00 0.00 0.00 0.01 0.01 0.03 0.01 0.00 0.00 0.00 0.00 0.00 0.00 0.00 0.00 0.00
0.01 0.00 0.00 0.01 0.01 0.01 0.01 0.01 0.02 0.02 0.03 0.02 0.00 0.00 0.00 0.00 0.00 0.00 0.00 0.00 0.00 0.00 0.00 0.00 0.00 0.01 0.00 0.00 0.00 0.00 0.00 0.00 0.01 0.01 0.01 0.02 0.00 0.00 0.00 0.00 0.00 0.00 0.00 0.00
0.00 0.00 0.00 0.02 0.02 0.02 0.01 0.01 0.01 0.02 0.01 0.03 0.02 0.00 0.00 0.00 0.00 0.00 0.00 0.00 0.00 0.00 0.00 0.01 0.04 0.00 0.00 0.01 0.00 0.00 0.00 0.00 0.01 0.00 0.01 0.02 0.00 0.00 0.00 0.00 0.00 0.00 0.00 0.00
0.00 0.00 0.01 0.01 0.00 0.02 0.03 0.03 0.03 0.05 0.02 0.02 0.04 0.03 0.01 0.00 0.00 0.00 0.00 0.00 0.00 0.00 0.01 0.01 0.01 0.00 0.00 0.00 0.01 0.00 0.00 0.00 0.00 0.00 0.02 0.01 0.00 0.00 0.00 0.00 0.00 0.00 0.00 0.00
0.00 0.00 0.02 0.02 0.03 0.03 0.02 0.03 0.05 0.05 0.06 0.05 0.03 0.07 0.05 0.01 0.00 0.00 0.00 0.00 0.00 0.00 0.01 0.00 0.00 0.00 0.00 0.00 0.00 0.00 0.00 0.01 0.01 0.04 0.03 0.01 0.00 0.00 0.00 0.00 0.00 0.00 0.00 0.00
0.01 0.00 0.01 0.02 0.03 0.03 0.02 0.02 0.03 0.04 0.03 0.02 0.01 0.00 0.00 0.02 0.02 0.00 0.00 0.00 0.00 0.00 0.00 0.00 0.00 0.00 0.00 0.00 0.00 0.00 0.00 0.01 0.03 0.02 0.01 0.00 0.00 0.00 0.00 0.00 0.00 0.00 0.00 0.00
0.00 0.00 0.01 0.01 0.04 0.02 0.02 0.02 0.01 0.02 0.01 0.01 0.00 0.01 0.01 0.04 0.01 0.00 0.01 0.01 0.00 0.00 0.00 0.00 0.00 0.00 0.00 0.00 0.00 0.00 0.01 0.03 0.03 0.01 0.00 0.00 0.00 0.00 0.00 0.00 0.00 0.00 0.00 0.00
0.00 0.00 0.00 0.03 0.04 0.00 0.01 0.01 0.02 0.03 0.02 0.00 0.01 0.01 0.02 0.10 0.07 0.03 0.02 0.00 0.00 0.00 0.00 0.00 0.00 0.00 0.01 0.00 0.00 0.01 0.03 0.04 0.04 0.02 0.02 0.01 0.00 0.00 0.00 0.00 0.00 0.00 0.00 0.00
0.00 0.01 0.01 0.02 0.02 0.03 0.04 0.02 0.03 0.02 0.01 0.00 0.01 0.05 0.14 0.16 0.06 0.01 0.00 0.00 0.00 0.00 0.00 0.00 0.00 0.01 0.02 0.01 0.02 0.02 0.01 0.01 0.00 0.01 0.03 0.01 0.00 0.00 0.00 0.00 0.00 0.00 0.00 0.00
0.00 0.00 0.02 0.02 0.04 0.04 0.01 0.00 0.00 0.00 0.00 0.01 0.01 0.08 0.12 0.04 0.01 0.00 0.00 0.00 0.00 0.00 0.00 0.00 0.01 0.01 0.01 0.01 0.00 0.00 0.00 0.00 0.00 0.00 0.00 0.00 0.00 0.00 0.00 0.00 0.00 0.00 0.00 0.00
0.00 0.00 0.02 0.04 0.03 0.01 0.00 0.00 0.00 0.00 0.00 0.02 0.05 0.05 0.01 0.01 0.00 0.00 0.00 0.00 0.00 0.00 0.01 0.02 0.03 0.03 0.02 0.00 0.00 0.00 0.00 0.00 0.00 0.00 0.00 0.00 0.00 0.00 0.00 0.00 0.00 0.00 0.00 0.00
0.00 0.00 0.00 0.01 0.01 0.01 0.00 0.00 0.00 0.00 0.00 0.02 0.04 0.10 0.02 0.01 0.00 0.00 0.00 0.00 0.00 0.01 0.04 0.04 0.02 0.02 0.01 0.00 0.00 0.00 0.00 0.00 0.00 0.00 0.00 0.00 0.00 0.00 0.00 0.00 0.00 0.00 0.00 0.00
0.00 0.00 0.00 0.00 0.00 0.00 0.00 0.00 0.00 0.00 0.00 0.02 0.05 0.04 0.01 0.00 0.01 0.00 0.00 0.00 0.00 0.02 0.06 0.04 0.01 0.00 0.00 0.00 0.00 0.00 0.00 0.00 0.00 0.00 0.00 0.00 0.00 0.00 0.00 0.00 0.00 0.00 0.00 0.00
0.00 0.00 0.00 0.00 0.00 0.00 0.00 0.00 0.00 0.00 0.00 0.03 0.03 0.02 0.01 0.01 0.01 0.00 0.00 0.00 0.01 0.01 0.03 0.01 0.00 0.00 0.00 0.00 0.00 0.00 0.00 0.00 0.00 0.00 0.00 0.00 0.00 0.00 0.00 0.00 0.00 0.00 0.00 0.00
0.00 0.00 0.00 0.00 0.00 0.00 0.00 0.00 0.00 0.00 0.00 0.01 0.01 0.01 0.01 0.00 0.00 0.00 0.00 0.02 0.03 0.00 0.00 0.00 0.00 0.00 0.00 0.00 0.00 0.00 0.00 0.00 0.00 0.00 0.00 0.00 0.00 0.00 0.00 0.00 0.00 0.00 0.00 0.00
0.00 0.00 0.00 0.00 0.00 0.00 0.00 0.00 0.00 0.01 0.00 0.01 0.01 0.01 0.03 0.01 0.00 0.00 0.00 0.02 0.01 0.00 0.00 0.00 0.00 0.00 0.00 0.00 0.00 0.00 0.00 0.00 0.00 0.00 0.00 0.00 0.00 0.00 0.00 0.00 0.00 0.00 0.00 0.00
0.00 0.00 0.00 0.00 0.00 0.00 0.00 0.00 0.00 0.00 0.00 0.00 0.01 0.01 0.02 0.02 0.01 0.01 0.01 0.01 0.00 0.00 0.00 0.00 0.00 0.00 0.00 0.00 0.00 0.00 0.00 0.00 0.00 0.00 0.00 0.00 0.00 0.00 0.00 0.00 0.00 0.00 0.00 0.00
0.01 0.00 0.00 0.00 0.00 0.00 0.00 0.00 0.00 0.00 0.00 0.00 0.00 0.00 0.00 0.01 0.01 0.01 0.01 0.00 0.00 0.00 0.00 0.00 0.00 0.00 0.00 0.00 0.00 0.00 0.00 0.00 0.00 0.00 0.00 0.00 0.00 0.00 0.00 0.00 0.00 0.00 0.00 0.00
MSLP
1008.70 1008.77 1007.60 1007.12 1006.71 1006.56 1006.49 1005.84 1005.09 1004.69 1004.74 1004.82 1003.61 1002.46 1001.79 1001.32 1000.91 1000.45 1000.05 999.86 999.55 999.09 999.06 999.22 999.81 1000.88 1002.12 1003.18 1004.16 1005.16 1005.85 1006.72 1007.74 1008.85 1009.16 1009.03 1009.35 1009.95 1010.62 1011.09 1011.74 1012.25 1012.52 1013.02
1008.07 1007.14 1006.92 1006.70 1006.48 1006.32 1006.12 1005.73 1004.95 1004.85 1004.88 1004.81 1003.52 1002.67 1001.93 1001.53 1000.83 1000.51 999.97 999.45 999.14 998.88 998.69 998.63 999.47 1000.58 1001.79 1002.58 1003.59 1004.84 1005.66 1006.58 1007.74 1008.30 1008.36 1008.60 1009.05 1009.92 1010.36 1011.20 1011.92 1012.24 1012.76 1013.32
1007.11 1006.13 1006.21 1006.36 1006.01 1005.90 1005.59 1005.27 1005.10 1004.86 1004.60 1004.14 1003.81 1002.36 1001.21 1000.35 1000.16 999.90 999.35 999.15 999.01 998.42 998.07 998.02 998.92 1000.10 1001.11 1001.83 1003.11 1004.55 1005.73 1006.71 1007.55 1007.70 1008.27 1008.90 1009.72 1010.50 1011.04 1011.91 1012.82 1013.22 1013.57 1014.13
1006.85 1006.11 1006.00 1005.52 1005.15 1005.44 1005.22 1005.21 1005.48 1005.66 1005.78 1003.87 1003.15 1000.76 999.02 998.33 998.21 998.32 998.09 998.44 998.17 997.94 997.81 997.68 998.26 999.44 1000.25 1001.31 1003.02 1004.46 1005.64 1006.13 1007.16 1007.92 1007.94 1008.53 1009.25 1010.82 1012.36 1012.89 1013.61 1014.09 1014.20 1014.51
1006.07 1005.86 1005.47 1005.03 1004.58 1004.97 1005.40 1005.97 1006.22 1006.26 1005.65 1004.83 1002.62 1000.84 996.99 997.23 996.41 996.06 996.44 996.62 996.89 996.74 997.02 997.12 997.66 998.60 999.70 1001.02 1002.41 1003.98 1004.96 1006.07 1007.19 1007.61 1007.68 1009.05 1010.64 1012.13 1012.88 1013.50 1014.10 1014.54 1014.62 1014.43
1005.92 1005.81 1005.68 1004.72 1004.94 1005.38 1006.26 1007.02 1006.89 1006.49 1005.88 1003.74 1000.92 1000.12 996.58 995.90 995.17 994.89 994.74 995.17 995.58 995.77 996.01 996.59 997.12 998.40 999.27 1000.52 1001.81 1003.30 1004.69 1005.91 1006.88 1007.50 1008.88 1009.90 1010.76 1012.04 1012.79 1013.65 1014.10 1014.57 1015.15 1015.28
1005.28 1003.90 1003.94 1004.94 1004.99 1005.32 1006.54 1007.50 1006.65 1006.00 1004.86 1000.59 999.31 998.70 996.74 995.29 994.56 993.95 993.70 993.57 994.28 994.83 995.33 995.95 996.47 997.66 998.72 1000.03 1001.52 1003.12 1004.69 1005.84 1006.80 1007.86 1009.13 1009.94 1010.78 1011.45 1012.04 1013.04 1014.05 1014.72 1015.10 1015.42
1006.30 1003.74 1003.78 1004.14 1004.56 1005.01 1005.89 1006.13 1005.02 1003.60 1001.64 999.38 998.40 997.00 994.75 994.51 994.69 994.26 993.38 992.81 993.38 993.90 994.74 995.40 996.25 997.18 998.75 1000.31 1001.86 1003.61 1004.75 1005.89 1006.94 1007.83 1008.70 1009.80 1010.74 1011.24 1012.20 1013.53 1014.42 1014.98 1015.31 1016.19
1007.54 1005.40 1004.72 1004.67 1004.92 1005.79 1005.85 1005.65 1004.97 1004.73 1002.60 1000.29 997.33 995.50 995.16 994.51 994.11 994.18 993.03 992.74 992.61 993.35 994.31 994.82 995.99 997.27 999.05 1000.73 1002.43 1003.50 1004.71 1006.05 1006.98 1007.84 1008.78 1009.82 1010.56 1011.66 1012.65 1013.56 1014.38 1015.25 1015.88 1016.44
1009.01 1007.09 1005.16 1004.18 1004.90 1005.30 1005.85 1005.95 1005.62 1004.59 1002.27 999.79 996.82 994.71 993.16 993.06 993.56 993.52 993.76 993.00 992.30 993.48 994.03 994.73 996.00 997.91 999.66 1001.43 1002.52 1003.72 1004.78 1005.92 1007.20 1008.08 1008.98 1010.39 1011.58 1012.54 1013.43 1014.31 1014.98 1015.41 1016.00 1016.60
1009.60 1009.05 1005.74 1005.06 1004.26 1004.09 1005.54 1005.39 1004.65 1003.15 1001.91 999.82 997.11 994.20 992.13 992.05 992.26 992.89 992.59 992.65 992.42 993.29 993.93 994.96 997.78 999.55 1000.97 1002.26 1002.77 1004.02 1005.01 1006.66 1007.70 1008.70 1010.07 1011.30 1012.08 1012.97 1013.94 1014.70 1015.14 1015.90 1016.57 1017.10
1009.85 1008.94 1006.44 1003.77 1002.82 1002.56 1002.60 1003.18 1003.31 1002.68 1001.08 999.96 998.93 997.22 994.14 992.74 991.97 992.08 992.02 991.77 992.10 993.35 994.31 997.32 999.36 1000.89 1002.10 1002.64 1004.02 1005.05 1006.09 1007.30 1008.58 1009.74 1010.69 1011.60 1012.46 1013.41 1014.34 1014.97 1015.58 1016.31 1017.04 1017.42
1010.03 1008.86 1006.46 1003.33 1002.52 1001.97 1002.06 1001.87 1002.35 1001.88 1001.58 1000.98 1000.33 998.62 997.50 995.48 992.80 991.53 991.37 991.21 992.24 993.73 996.90 998.84 1000.23 1001.32 1002.40 1003.71 1004.94 1006.06 1007.22 1008.33 1009.48 1010.42 1011.16 1012.05 1012.90 1013.86 1014.75 1015.56 1016.28 1016.90 1017.44 1017.79
1009.12 1008.38 1006.63 1004.38 1001.92 1002.12 1001.42 1000.81 1001.28 1001.57 1001.27 1001.08 1000.43 999.82 998.08 996.05 993.73 991.41 991.42 991.52 993.04 996.49 998.40 999.51 1000.70 1002.16 1003.49 1004.89 1005.85 1007.00 1008.05 1009.12 1010.10 1011.04 1011.98 1013.12 1014.06 1014.89 1015.79 1016.42 1016.93 1017.45 1018.01 1018.36
1008.97 1007.61 1005.86 1003.95 1002.26 1001.06 1001.51 1000.70 1001.62 1001.26 1000.89 1001.10 1000.66 999.83 997.36 995.92 995.02 992.13 992.25 993.59 996.48 998.34 999.72 1000.52 1001.46 1003.06 1004.54 1005.68 1006.89 1007.84 1008.93 1009.80 1010.78 1011.66 1012.91 1014.10 1015.14 1015.84 1016.38 1016.83 1017.54 1018.14 1018.56 1018.97
1008.41 1006.84 1004.96 1002.48 1000.93 1000.30 1000.25 1000.41 1001.23 1001.48 1001.52 1000.88 1000.72 999.30 997.23 995.85 994.93 992.67 994.54 996.04 997.74 999.16 1000.26 1001.52 1002.97 1004.09 1005.32 1006.32 1007.34 1008.67 1009.78 1010.54 1011.40 1012.28 1013.37 1014.42 1015.28 1016.06 1016.80 1017.48 1018.18 1018.68 1019.14 1019.61
1008.19 1006.79 1004.51 1001.77 1000.39 1000.08 1001.06 1002.77 1002.77 1002.65 1002.16 1002.19 1001.04 998.90 997.37 996.20 995.28 995.88 996.82 998.14 999.00 1000.17 1001.32 1002.58 1003.71 1004.71 1005.74 1006.89 1008.06 1009.14 1010.18 1011.09 1011.86 1012.87 1013.98 1014.74 1015.39 1016.18 1017.16 1017.94 1018.64 1019.32 1019.96 1020.36
1008.03 1006.63 1004.35 1001.86 1000.48 1000.73 1002.90 1003.78 1003.97 1003.90 1002.73 1002.33 1000.28 999.25 997.52 996.14 997.30 998.24 999.18 999.66 1000.64 1001.48 1002.38 1003.46 1004.24 1005.11 1006.09 1007.21 1008.29 1009.16 1010.14 1010.91 1011.87 1012.97 1014.06 1014.72 1015.46 1016.52 1017.64 1018.48 1019.32 1020.00 1020.61 1020.95
1007.71 1006.91 1004.40 1002.36 1001.39 1002.27 1002.90 1004.69 1005.49 1004.64 1003.80 1002.64 1001.20 999.12 997.31 998.22 999.03 1001.22 1001.50 1001.95 1002.31 1002.89 1003.58 1004.12 1004.83 1005.53 1006.58 1007.44 1008.42 1009.44 1010.34 1011.18 1012.06 1013.10 1014.05 1015.10 1016.02 1017.04 1017.91 1018.96 1019.80 1020.49 1020.70 1021.20
1006.95 1005.98 1005.29 1003.84 1003.32 1004.17 1005.77 1005.81 1005.74 1005.74 1004.45 1003.54 1002.84 1000.69 999.73 999.60 1001.34 1003.70 1003.50 1003.84 1004.12 1004.49 1004.86 1005.14 1005.84 1006.58 1007.39 1008.68 1009.44 1010.15 1010.96 1011.83 1012.71 1013.86 1014.88 1015.73 1016.77 1017.76 1018.79 1019.73 1020.32 1020.80 1020.93 1021.11
1008.02 1007.30 1006.32 1005.70 1005.49 1006.40 1007.82 1007.36 1005.52 1006.23 1006.94 1005.18 1003.27 1001.70 1001.18 1002.34 1003.95 1004.65 1004.70 1005.37 1005.72 1005.75 1006.08 1006.59 1007.20 1007.83 1008.78 1009.70 1010.37 1011.11 1012.06 1012.96 1013.88 1014.68 1015.60 1016.82 1017.94 1018.81 1019.49 1020.16 1020.83 1021.16 1021.30 1021.45
1010.73 1010.19 1009.01 1008.56 1008.01 1008.39 1009.01 1007.97 1008.39 1007.53 1007.09 1006.02 1004.86 1004.05 1003.70 1004.56 1005.75 1006.13 1006.18 1006.57 1006.74 1006.74 1007.38 1008.03 1008.42 1009.39 1010.42 1011.31 1011.81 1012.49 1013.42 1014.36 1015.19 1015.95 1016.74 1017.94 1018.74 1019.33 1020.22 1020.84 1021.55 1021.90 1021.92 1022.04
1011.72 1012.55 1012.20 1011.91 1011.27 1011.56 1011.43 1010.82 1008.99 1007.28 1006.99 1007.02 1006.63 1006.21 1005.62 1006.22 1007.19 1007.51 1007.56 1007.76 1007.77 1007.92 1008.56 1009.39 1009.90 1010.76 1011.84 1012.57 1013.18 1013.48 1014.62 1015.31 1015.96 1016.78 1017.80 1018.54 1019.23 1020.02 1020.80 1021.30 1021.82 1022.06 1022.40 1022.33
1012.94 1013.40 1013.04 1012.69 1012.66 1012.69 1012.06 1010.96 1009.35 1008.48 1007.78 1008.02 1007.90 1007.78 1007.67 1007.42 1008.80 1009.04 1008.91 1008.99 1008.98 1009.57 1010.35 1011.10 1011.78 1012.66 1013.34 1014.22 1014.66 1014.97 1015.66 1016.27 1016.94 1017.80 1018.73 1019.56 1020.17 1020.92 1021.44 1021.86 1022.30 1022.48 1022.66 1022.88
1014.20 1014.24 1014.04 1013.62 1013.25 1012.95 1012.62 1012.11 1010.94 1009.52 1009.62 1009.43 1009.46 1009.42 1009.74 1009.09 1010.48 1010.68 1010.64 1010.62 1010.43 1011.12 1012.12 1012.90 1013.79 1014.50 1015.01 1015.55 1015.77 1016.28 1016.76 1017.38 1017.98 1018.76 1019.51 1020.23 1020.81 1021.50 1022.37 1023.29 1023.80 1024.24 1025.13 1024.97
1015.26 1015.39 1015.26 1014.88 1015.19 1014.97 1013.80 1012.90 1011.61 1011.08 1010.86 1010.50 1010.26 1010.68 1011.32 1010.96 1011.79 1012.34 1012.47 1012.78 1012.99 1013.16 1014.18 1015.00 1015.74 1016.14 1016.27 1016.62 1016.80 1017.28 1017.68 1018.17 1018.54 1019.29 1020.03 1020.61 1021.24 1022.02 1022.85 1023.61 1025.08 1026.54 1026.58 1026.53
Thickness
5570 5558 5559 5566 5571 5570 5566 5568 5570 5581 5585 5575 5587 5600 5615 5639 5658 5676 5694 5707 5720 5740 5759 5773 5781 5786 5787 5789 5788 5786 5786 5786 5782 5773 5770 5774 5773 5773 5770 5766 5761 5757 5754 5749
5564 5560 5568 5568 5568 5563 5563 5561 5570 5577 5578 5572 5583 5581 5606 5619 5646 5663 5683 5699 5714 5731 5749 5766 5774 5779 5781 5783 5784 5781 5781 5779 5773 5772 5773 5774 5772 5768 5768 5762 5753 5751 5745 5740
5561 5573 5570 5562 5562 5557 5562 5561 5565 5567 5574 5579 5571 5574 5595 5625 5641 5657 5681 5697 5706 5725 5745 5762 5770 5773 5778 5781 5781 5775 5772 5770 5768 5771 5768 5764 5761 5757 5753 5748 5740 5737 5733 5728
5561 5569 5560 5561 5563 5560 5552 5568 5561 5553 5543 5556 5575 5574 5607 5631 5639 5656 5679 5687 5705 5722 5742 5758 5767 5770 5777 5780 5776 5771 5768 5770 5763 5762 5764 5762 5758 5745 5736 5733 5728 5726 5724 5721
5561 5560 5558 5558 5564 5563 5550 5553 5546 5541 5540 5540 5565 5570 5619 5625 5637 5665 5681 5699 5709 5727 5741 5754 5765 5772 5778 5776 5775 5771 5769 5764 5758 5758 5760 5752 5737 5729 5726 5723 5718 5715 5715 5715
5563 5562 5553 5559 5560 5555 5545 5530 5530 5532 5531 5530 5573 5569 5604 5618 5638 5669 5692 5704 5714 5728 5744 5754 5765 5768 5771 5773 5774 5769 5763 5757 5754 5753 5745 5737 5730 5721 5718 5713 5712 5710 5706 5704
5564 5572 5568 5554 5545 5549 5530 5513 5523 5523 5522 5562 5590 5573 5595 5624 5644 5669 5692 5711 5719 5730 5741 5750 5759 5762 5766 5768 5767 5765 5756 5750 5749 5745 5736 5731 5725 5723 5721 5717 5711 5706 5703 5699
5535 5558 5559 5556 5545 5536 5525 5529 5539 5536 5557 5578 5586 5568 5611 5631 5635 5658 5684 5709 5717 5726 5735 5747 5757 5760 5761 5760 5759 5753 5751 5746 5744 5739 5733 5728 5724 5724 5718 5710 5705 5700 5695 5687
5525 5540 5549 5542 5537 5523 5514 5515 5533 5514 5538 5548 5585 5596 5603 5617 5619 5631 5661 5684 5701 5718 5730 5747 5754 5755 5755 5753 5750 5750 5748 5742 5738 5730 5727 5723 5723 5716 5712 5707 5702 5695 5688 5683
5505 5517 5540 5540 5526 5522 5513 5513 5515 5518 5526 5537 5576 5590 5599 5608 5605 5625 5643 5669 5699 5712 5729 5745 5750 5747 5747 5744 5746 5746 5745 5737 5728 5725 5722 5715 5709 5705 5701 5695 5691 5690 5685 5678
5494 5481 5528 5524 5522 5525 5502 5503 5513 5530 5534 5536 5563 5593 5625 5614 5619 5627 5656 5678 5697 5711 5728 5738 5728 5730 5732 5734 5739 5739 5736 5725 5720 5718 5709 5703 5701 5697 5692 5688 5686 5681 5675 5670
5494 5486 5511 5535 5541 5541 5535 5523 5518 5513 5534 5548 5544 5540 5594 5611 5628 5646 5663 5688 5707 5716 5726 5713 5714 5716 5719 5725 5724 5723 5720 5715 5708 5703 5699 5696 5694 5690 5684 5681 5678 5673 5667 5663
5483 5495 5514 5534 5535 5534 5524 5532 5523 5529 5527 5524 5517 5528 5548 5572 5610 5653 5670 5694 5702 5707 5692 5700 5705 5710 5714 5715 5714 5710 5706 5702 5697 5692 5690 5689 5686 5681 5676 5671 5667 5663 5658 5655
5496 5495 5505 5526 5546 5519 5529 5537 5533 5527 5521 5527 5525 5519 5544 5572 5596 5650 5672 5689 5691 5681 5686 5696 5700 5703 5704 5702 5701 5698 5695 5691 5687 5685 5681 5675 5670 5667 5662 5659 5657 5654 5649 5645
5493 5507 5512 5521 5531 5541 5526 5541 5527 5532 5536 5520 5525 5527 5561 5581 5588 5648 5669 5669 5662 5668 5676 5688 5696 5694 5692 5690 5689 5688 5684 5682 5678 5675 5668 5662 5657 5654 5653 5651 5646 5642 5639 5636
5498 5515 5525 5536 5555 5558 5551 5553 5543 5539 5532 5537 5530 5544 5578 5595 5608 5652 5648 5656 5660 5666 5675 5680 5682 5682 5680 5681 5681 5677 5672 5670 5668 5666 5660 5655 5651 5648 5644 5641 5636 5633 5629 5624
5496 5510 5529 5548 5563 5563 5547 5523 5524 5523 5527 5508 5540 5567 5586 5607 5635 5633 5642 5650 5658 5664 5670 5672 5674 5674 5674 5673 5671 5668 5664 5661 5659 5655 5649 5647 5646 5642 5636 5632 5627 5622 5616 5612
5497 5510 5533 5552 5568 5556 5529 5514 5503 5496 5518 5516 5562 5573 5598 5619 5618 5625 5636 5648 5651 5659 5663 5664 5668 5669 5670 5669 5667 5666 5664 5661 5657 5651 5645 5644 5640 5634 5627 5622 5615 5610 5604 5601
5510 5504 5538 5553 5564 5554 5546 5508 5489 5494 5519 5531 5546 5582 5600 5612 5615 5605 5621 5633 5643 5650 5655 5660 5663 5665 5664 5665 5664 5661 5658 5655 5651 5645 5641 5635 5631 5624 5619 5611 5605 5599 5597 5592
5528 5533 5530 5547 5552 5548 5515 5495 5496 5490 5554 5530 5539 5585 5605 5620 5607 5594 5607 5620 5630 5639 5645 5649 5652 5654 5654 5650 5651 5649 5646 5644 5640 5634 5629 5626 5620 5613 5606 5599 5595 5590 5589 5587
5513 5516 5530 5540 5543 5531 5487 5486 5519 5542 5517 5523 5558 5581 5604 5601 5595 5595 5604 5608 5618 5628 5632 5637 5640 5641 5640 5639 5639 5636 5634 5630 5627 5624 5620 5613 5605 5599 5596 5591 5585 5581 5579 5576
5481 5481 5505 5519 5535 5535 5487 5497 5500 5506 5507 5531 5550 5566 5576 5579 5579 5586 5596 5601 5609 5618 5622 5626 5629 5627 5624 5623 5624 5622 5618 5616 5613 5610 5606 5598 5593 5591 5584 5579 5572 5568 5567 5564
5494 5468 5473 5476 5493 5473 5471 5475 5489 5518 5512 5529 5538 5552 5568 5572 5571 5579 5587 5594 5603 5611 5614 5615 5616 5615 5613 5612 5611 5612 5607 5605 5604 5599 5592 5589 5585 5579 5573 5569 5564 5562 5557 5557
5474 5465 5471 5475 5473 5469 5475 5481 5500 5513 5518 5523 5533 5543 5554 5565 5562 5570 5580 5587 5596 5599 5599 5599 5600 5598 5597 5595 5595 5596 5594 5593 5591 5586 5580 5574 5570 5565 5561 5558 5555 5554 5553 5549
5467 5461 5465 5475 5477 5474 5480 5478 5489 5504 5509 5519 5525 5536 5539 5554 5549 5556 5565 5575 5586 5587 5583 5583 5581 5580 5580 5581 5583 5581 5581 5579 5577 5572 5567 5562 5559 5553 5547 5540 5539 5536 5525 5525
5455 5459 5471 5480 5460 5464 5474 5475 5492 5495 5504 5520 5528 5529 5530 5542 5543 5545 5551 5557 5562 5569 5565 5562 5560 5562 5569 5570 5572 5570 5569 5568 5567 5562 5558 5554 5549 5543 5536 5531 5522 5510 5508 5506